Location: *
(46.1866°S, 178.5290°W)
Time: 04:42:06
(UTC+00:00)

CZ-4B R/B - Pass Details

Date: 28 September 2021
Orbit: 809 x 881 km, 99.1° (Epoch: 17 October)

Event Time Altitude Azimuth Distance (km) Brightness Sun altitude
Rises 06:54:23 0° 164° (SSE) 3,373 6.3 -10.4°
Reaches altitude 10° 06:56:46 10° 162° (SSE) 2,433 5.6 -10.8°
Maximum altitude 07:02:08 75° 76° (ENE) 856 3.1 -11.7°
Drops below altitude 10° 07:07:29 10° 350° (N) 2,416 5.5 -12.6°
Sets 07:09:49 0° 348° (NNW) 3,347 6.3 -12.9°
